MSC61 OMDB-HECA

Flight info

Callsign MSC61
Flight time 3h 56m
Altitude 36000
Route SENPA2F SENPA N571 ALPOB L768 VATIM L550 NOVPA N697 MENLI L677 CVO DCT
Aircraft A320/M-SDE3FGHIRWY/LB1

Departure

Time 2026-04-22 22:04
Airport Dubai International Airport (OMDB)

Arrival

Time 2026-04-23 02:01
Airport Cairo International Airport (HECA)
Time Latitude Longitude Altitude Speed Heading
2026-04-22 21:27 25.24295 55.37438 21 ft 0 kts 211°
2026-04-22 21:53 25.24303 55.37443 23 ft 4 kts 211°
2026-04-22 21:53 25.24326 55.37459 22 ft 4 kts 211°
2026-04-22 21:53 25.24348 55.37474 22 ft 3 kts 211°
2026-04-22 21:53 25.24368 55.37486 22 ft 4 kts 190°
2026-04-22 21:54 25.24392 55.37482 26 ft 4 kts 140°
2026-04-22 21:54 25.24409 55.37460 20 ft 4 kts 121°
2026-04-22 21:54 25.24420 55.37440 23 ft 0 kts 122°
2026-04-22 21:58 25.24417 55.37444 22 ft 4 kts 122°
2026-04-22 21:59 25.24406 55.37464 20 ft 4 kts 121°
2026-04-22 21:59 25.24384 55.37505 25 ft 8 kts 121°
2026-04-22 21:59 25.24344 55.37574 23 ft 13 kts 122°
2026-04-22 21:59 25.24297 55.37659 22 ft 0 kts 122°
2026-04-22 22:00 25.24294 55.37664 22 ft 3 kts 122°
2026-04-22 22:00 25.24277 55.37694 21 ft 7 kts 122°
2026-04-22 22:00 25.24254 55.37755 21 ft 10 kts 86°
2026-04-22 22:01 25.24316 55.37817 22 ft 14 kts 26°
2026-04-22 22:01 25.24407 55.37880 23 ft 16 kts 33°
2026-04-22 22:01 25.24498 55.37947 27 ft 16 kts 34°
2026-04-22 22:01 25.24596 55.38021 23 ft 17 kts 34°
2026-04-22 22:02 25.24627 55.38044 23 ft 2 kts 33°
2026-04-22 22:02 25.24633 55.38048 23 ft 3 kts 33°
2026-04-22 22:02 25.24665 55.38071 26 ft 6 kts 32°
2026-04-22 22:02 25.24705 55.38098 25 ft 7 kts 31°
2026-04-22 22:03 25.24760 55.38111 30 ft 9 kts 334°
2026-04-22 22:03 25.24789 55.38058 26 ft 6 kts 301°
2026-04-22 22:03 25.24789 55.38056 26 ft 0 kts 301°
2026-04-22 22:03 25.24853 55.37941 28 ft 53 kts 301°
2026-04-22 22:04 25.25170 55.37371 27 ft 117 kts 301°
2026-04-22 22:04 25.25691 55.36438 29 ft 166 kts 302°
2026-04-22 22:04 25.26302 55.35338 577 ft 167 kts 302°
2026-04-22 22:04 25.26909 55.34242 1219 ft 168 kts 303°
2026-04-22 22:05 25.27548 55.33096 1604 ft 184 kts 303°
2026-04-22 22:05 25.28238 55.31860 1992 ft 192 kts 303°
2026-04-22 22:05 25.28932 55.30586 2489 ft 197 kts 299°
2026-04-22 22:05 25.29256 55.29040 2688 ft 220 kts 276°
2026-04-22 22:06 25.29362 55.27259 2863 ft 244 kts 275°
2026-04-22 22:06 25.29468 55.25294 3148 ft 268 kts 275°
2026-04-22 22:06 25.29579 55.23195 3741 ft 277 kts 274°
2026-04-22 22:06 25.29690 55.21060 4506 ft 279 kts 272°
2026-04-22 22:07 25.29802 55.18927 5366 ft 277 kts 271°
2026-04-22 22:07 25.29916 55.16811 6205 ft 276 kts 271°
2026-04-22 22:07 25.30031 55.14693 6973 ft 276 kts 271°
2026-04-22 22:07 25.30149 55.12566 7701 ft 279 kts 271°
2026-04-22 22:08 25.30271 55.10420 8434 ft 281 kts 271°
2026-04-22 22:08 25.30394 55.08250 9185 ft 284 kts 270°
2026-04-22 22:08 25.30517 55.06063 9907 ft 287 kts 270°
2026-04-22 22:08 25.30639 55.03829 10378 ft 300 kts 271°
2026-04-22 22:09 25.30767 55.01442 10545 ft 323 kts 271°
2026-04-22 22:09 25.30902 54.98886 10733 ft 342 kts 271°
2026-04-22 22:09 25.31046 54.96226 11242 ft 349 kts 271°
2026-04-22 22:09 25.31195 54.93538 11883 ft 352 kts 271°
2026-04-22 22:10 25.31346 54.90828 12547 ft 354 kts 272°
2026-04-22 22:10 25.31497 54.88099 13231 ft 357 kts 272°
2026-04-22 22:10 25.31646 54.85356 13879 ft 359 kts 272°
2026-04-22 22:10 25.31793 54.82597 14469 ft 361 kts 272°
2026-04-22 22:11 25.31941 54.79828 14706 ft 361 kts 272°
2026-04-22 22:11 25.32088 54.77061 14773 ft 360 kts 272°
2026-04-22 22:11 25.32236 54.74294 14779 ft 360 kts 272°
2026-04-22 22:11 25.32383 54.71532 14916 ft 363 kts 272°
2026-04-22 22:12 25.32529 54.68743 15560 ft 364 kts 272°
2026-04-22 22:12 25.32675 54.65952 16198 ft 365 kts 272°
2026-04-22 22:12 25.32820 54.63180 16792 ft 367 kts 272°
2026-04-22 22:12 25.32969 54.60318 17386 ft 370 kts 272°
2026-04-22 22:13 25.33117 54.57471 17950 ft 372 kts 272°
2026-04-22 22:13 25.33285 54.54606 18442 ft 375 kts 275°
2026-04-22 22:13 25.33801 54.51813 18902 ft 379 kts 285°
2026-04-22 22:13 25.34567 54.49014 19371 ft 382 kts 285°
2026-04-22 22:14 25.35338 54.46188 19810 ft 385 kts 285°
2026-04-22 22:14 25.36112 54.43341 20285 ft 388 kts 285°
2026-04-22 22:14 25.36887 54.40481 20748 ft 390 kts 285°
2026-04-22 22:14 25.37665 54.37594 21204 ft 393 kts 285°
2026-04-22 22:15 25.38447 54.34689 21653 ft 395 kts 285°
2026-04-22 22:15 25.39232 54.31768 22112 ft 397 kts 284°
2026-04-22 22:15 25.40021 54.28834 22539 ft 400 kts 284°
2026-04-22 22:15 25.40807 54.25868 22961 ft 403 kts 284°
2026-04-22 22:16 25.41566 54.22883 23375 ft 405 kts 283°
2026-04-22 22:16 25.42310 54.19866 23728 ft 407 kts 283°
2026-04-22 22:16 25.43048 54.16836 24091 ft 409 kts 283°
2026-04-22 22:16 25.43788 54.13791 24465 ft 410 kts 283°
2026-04-22 22:17 25.44533 54.10740 24827 ft 412 kts 283°
2026-04-22 22:17 25.45283 54.07674 25183 ft 413 kts 283°
2026-04-22 22:17 25.46029 54.04599 25543 ft 415 kts 283°
2026-04-22 22:17 25.46775 54.01507 25884 ft 417 kts 283°
2026-04-22 22:18 25.47521 53.98402 26225 ft 419 kts 283°
2026-04-22 22:18 25.48268 53.95281 26559 ft 421 kts 283°
2026-04-22 22:18 25.49019 53.92144 26887 ft 422 kts 283°
2026-04-22 22:18 25.49773 53.88996 27218 ft 424 kts 283°
2026-04-22 22:19 25.50528 53.85835 27538 ft 425 kts 283°
2026-04-22 22:19 25.51287 53.82667 27852 ft 427 kts 283°
2026-04-22 22:19 25.52050 53.79480 28154 ft 429 kts 283°
2026-04-22 22:19 25.52814 53.76289 28450 ft 430 kts 284°
2026-04-22 22:20 25.53582 53.73082 28742 ft 432 kts 284°
2026-04-22 22:20 25.54353 53.69866 29064 ft 432 kts 284°
2026-04-22 22:20 25.55125 53.66648 29382 ft 433 kts 284°
2026-04-22 22:20 25.55896 53.63424 29777 ft 432 kts 284°
2026-04-22 22:21 25.56660 53.60217 30166 ft 430 kts 284°
2026-04-22 22:21 25.57163 53.58105 30415 ft 428 kts 284°
2026-04-22 22:21 25.57922 53.54922 30800 ft 426 kts 284°
2026-04-22 22:21 25.58673 53.51761 31176 ft 423 kts 284°
2026-04-22 22:22 25.59418 53.48617 31559 ft 421 kts 284°
2026-04-22 22:22 25.60159 53.45489 31940 ft 419 kts 284°
2026-04-22 22:22 25.60898 53.42374 32329 ft 416 kts 284°
2026-04-22 22:22 25.61636 53.39282 32709 ft 414 kts 284°
2026-04-22 22:23 25.62367 53.36206 33082 ft 412 kts 284°
2026-04-22 22:23 25.63091 53.33145 33457 ft 410 kts 284°
2026-04-22 22:23 25.63809 53.30096 33828 ft 408 kts 284°
2026-04-22 22:23 25.64518 53.27069 34162 ft 405 kts 284°
2026-04-22 22:24 25.65221 53.24061 34532 ft 401 kts 284°
2026-04-22 22:24 25.65916 53.21085 34966 ft 396 kts 284°
2026-04-22 22:24 25.66604 53.18150 35366 ft 392 kts 284°
2026-04-22 22:24 25.67289 53.15239 35703 ft 389 kts 284°
2026-04-22 22:25 25.67970 53.12348 35794 ft 387 kts 284°
2026-04-22 22:25 25.69321 53.06577 35808 ft 386 kts 284°
2026-04-22 22:26 25.70847 53.00878 35820 ft 387 kts 292°
2026-04-22 22:26 25.73302 52.95617 35818 ft 386 kts 295°
2026-04-22 22:27 25.75799 52.90343 35822 ft 386 kts 295°
2026-04-22 22:27 25.78285 52.85067 35828 ft 386 kts 295°
2026-04-22 22:28 25.80773 52.79789 35830 ft 386 kts 295°
2026-04-22 22:28 25.83262 52.74507 35828 ft 386 kts 295°
2026-04-22 22:29 25.85747 52.69232 35837 ft 385 kts 295°
2026-04-22 22:29 25.88221 52.63961 35842 ft 385 kts 295°
2026-04-22 22:30 25.90686 52.58682 35842 ft 384 kts 294°
2026-04-22 22:30 25.93051 52.53363 35848 ft 384 kts 293°
2026-04-22 22:31 25.95368 52.48026 35859 ft 383 kts 293°
2026-04-22 22:31 25.97695 52.42702 35856 ft 383 kts 293°
2026-04-22 22:32 26.00039 52.37392 35854 ft 383 kts 294°
2026-04-22 22:32 26.02407 52.32094 35851 ft 383 kts 294°
2026-04-22 22:33 26.04778 52.26797 35848 ft 382 kts 294°
2026-04-22 22:33 26.07122 52.21543 35850 ft 381 kts 294°
2026-04-22 22:34 26.09478 52.16263 35868 ft 381 kts 293°
2026-04-22 22:34 26.11845 52.10949 35860 ft 381 kts 293°
2026-04-22 22:35 26.14173 52.05697 35855 ft 381 kts 293°
2026-04-22 22:35 26.16514 52.00404 35847 ft 381 kts 294°
2026-04-22 22:36 26.18873 51.95116 35855 ft 382 kts 294°
2026-04-22 22:36 26.21255 51.89831 35849 ft 382 kts 294°
2026-04-22 22:37 26.23599 51.84526 35858 ft 382 kts 292°
2026-04-22 22:37 26.25925 51.79210 35854 ft 382 kts 292°
2026-04-22 22:38 26.28285 51.73907 35851 ft 382 kts 293°
2026-04-22 22:38 26.30655 51.68602 35856 ft 383 kts 293°
2026-04-22 22:39 26.33028 51.63289 35861 ft 383 kts 293°
2026-04-22 22:39 26.35403 51.57974 35867 ft 383 kts 293°
2026-04-22 22:40 26.37750 51.52640 35865 ft 383 kts 289°
2026-04-22 22:40 26.39559 51.47081 35875 ft 381 kts 286°
2026-04-22 22:41 26.41339 51.41514 35884 ft 381 kts 286°
2026-04-22 22:41 26.43115 51.35954 35885 ft 380 kts 286°
2026-04-22 22:42 26.44897 51.30397 35888 ft 380 kts 287°
2026-04-22 22:42 26.46675 51.24835 35889 ft 381 kts 287°
2026-04-22 22:43 26.48453 51.19273 35893 ft 381 kts 287°
2026-04-22 22:43 26.50230 51.13704 35901 ft 381 kts 286°
2026-04-22 22:44 26.51997 51.08130 35895 ft 381 kts 286°
2026-04-22 22:44 26.53760 51.02545 35890 ft 382 kts 286°
2026-04-22 22:45 26.55532 50.96950 35895 ft 382 kts 286°
2026-04-22 22:45 26.57307 50.91357 35897 ft 382 kts 286°
2026-04-22 22:46 26.59062 50.85748 35888 ft 382 kts 286°
2026-04-22 22:46 26.60798 50.80138 35892 ft 382 kts 286°
2026-04-22 22:47 26.62533 50.74530 35903 ft 382 kts 285°
2026-04-22 22:47 26.64265 50.68912 35885 ft 383 kts 285°
2026-04-22 22:48 26.65953 50.63312 35878 ft 383 kts 285°
2026-04-22 22:48 26.67627 50.57629 35891 ft 382 kts 284°
2026-04-22 22:49 26.69266 50.52024 35892 ft 382 kts 284°
2026-04-22 22:49 26.70905 50.46382 35897 ft 381 kts 284°
2026-04-22 22:50 26.72387 50.40700 35916 ft 380 kts 282°
2026-04-22 22:50 26.73806 50.35006 35912 ft 380 kts 282°
2026-04-22 22:51 26.75242 50.29322 35910 ft 380 kts 282°
2026-04-22 22:51 26.76761 50.23661 35907 ft 380 kts 284°
2026-04-22 22:52 26.78468 50.18053 35906 ft 380 kts 285°
2026-04-22 22:52 26.80186 50.12466 35915 ft 379 kts 285°
2026-04-22 22:53 26.81859 50.06882 35911 ft 378 kts 284°
2026-04-22 22:53 26.83510 50.01307 35927 ft 377 kts 284°
2026-04-22 22:54 26.85168 49.95730 35920 ft 378 kts 284°
2026-04-22 22:54 26.86822 49.90155 35904 ft 377 kts 284°
2026-04-22 22:55 26.88469 49.84589 35907 ft 376 kts 284°
2026-04-22 22:55 26.90931 49.76244 35903 ft 376 kts 284°
2026-04-22 22:56 26.92564 49.70690 35908 ft 375 kts 284°
2026-04-22 22:56 26.94176 49.65186 35932 ft 374 kts 284°
2026-04-22 22:57 26.95809 49.59650 35910 ft 374 kts 283°
2026-04-22 22:57 26.97439 49.54106 35904 ft 375 kts 283°
2026-04-22 22:58 26.99064 49.48552 35905 ft 374 kts 283°
2026-04-22 22:58 27.00681 49.43015 35912 ft 373 kts 283°
2026-04-22 22:59 27.02954 49.37724 35912 ft 380 kts 293°
2026-04-22 22:59 27.05556 49.32573 35913 ft 379 kts 293°
2026-04-22 23:00 27.08156 49.27422 35903 ft 379 kts 293°
2026-04-22 23:00 27.10737 49.22273 35911 ft 378 kts 293°
2026-04-22 23:01 27.13317 49.17121 35923 ft 378 kts 293°
2026-04-22 23:01 27.15896 49.11980 35919 ft 378 kts 293°
2026-04-22 23:02 27.18471 49.06836 35923 ft 378 kts 292°
2026-04-22 23:02 27.21035 49.01719 35931 ft 379 kts 292°
2026-04-22 23:03 27.23617 48.96555 35926 ft 380 kts 292°
2026-04-22 23:03 27.26199 48.91379 35922 ft 380 kts 292°
2026-04-22 23:04 27.28777 48.86196 35926 ft 380 kts 292°
2026-04-22 23:04 27.31354 48.81006 35928 ft 380 kts 292°
2026-04-22 23:05 27.33932 48.75815 35945 ft 381 kts 292°
2026-04-22 23:05 27.36515 48.70614 35934 ft 381 kts 292°
2026-04-22 23:06 27.39096 48.65404 35928 ft 381 kts 292°
2026-04-22 23:06 27.41684 48.60188 35927 ft 382 kts 292°
2026-04-22 23:07 27.44263 48.54973 35932 ft 381 kts 292°
2026-04-22 23:07 27.46839 48.49757 35953 ft 381 kts 291°
2026-04-22 23:08 27.49396 48.44579 35950 ft 381 kts 291°
2026-04-22 23:08 27.51984 48.39329 35938 ft 381 kts 291°
2026-04-22 23:09 27.54533 48.34141 35933 ft 381 kts 291°
2026-04-22 23:09 27.57103 48.28915 35930 ft 381 kts 291°
2026-04-22 23:10 27.59666 48.23689 35965 ft 381 kts 291°
2026-04-22 23:10 27.62230 48.18471 35942 ft 381 kts 291°
2026-04-22 23:11 27.64797 48.13247 35937 ft 381 kts 291°
2026-04-22 23:11 27.66942 48.08868 35936 ft 381 kts 291°
2026-04-22 23:12 27.69502 48.03635 35937 ft 381 kts 291°
2026-04-22 23:12 27.72058 47.98403 35963 ft 381 kts 291°
2026-04-22 23:13 27.74609 47.93175 35963 ft 379 kts 291°
2026-04-22 23:13 27.77144 47.87959 35961 ft 379 kts 291°
2026-04-22 23:14 27.79660 47.82787 35956 ft 378 kts 291°
2026-04-22 23:14 27.82187 47.77580 35947 ft 378 kts 291°
2026-04-22 23:15 27.84567 47.72318 35980 ft 371 kts 283°
2026-04-22 23:15 27.86262 47.66841 35971 ft 369 kts 283°
2026-04-22 23:16 27.87963 47.61378 35968 ft 368 kts 283°
2026-04-22 23:16 27.89660 47.55921 35964 ft 368 kts 283°
2026-04-22 23:17 27.91345 47.50465 35963 ft 367 kts 283°
2026-04-22 23:17 27.93034 47.45015 35964 ft 367 kts 283°
2026-04-22 23:18 27.94716 47.39572 35975 ft 366 kts 283°
2026-04-22 23:18 27.96393 47.34144 35953 ft 366 kts 283°
2026-04-22 23:19 27.98065 47.28712 35950 ft 365 kts 283°
2026-04-22 23:19 27.99731 47.23284 35949 ft 365 kts 283°
2026-04-22 23:20 28.01392 47.17849 35944 ft 365 kts 283°
2026-04-22 23:20 28.03057 47.12414 35941 ft 366 kts 283°
2026-04-22 23:21 28.04724 47.06974 35974 ft 365 kts 283°
2026-04-22 23:21 28.06387 47.01539 35969 ft 365 kts 283°
2026-04-22 23:22 28.08039 46.96105 35957 ft 365 kts 283°
2026-04-22 23:22 28.09691 46.90670 35952 ft 365 kts 283°
2026-04-22 23:23 28.11376 46.85243 35952 ft 366 kts 284°
2026-04-22 23:23 28.13185 46.79848 35974 ft 367 kts 284°
2026-04-22 23:24 28.15010 46.74488 35975 ft 367 kts 284°
2026-04-22 23:24 28.16822 46.69085 35968 ft 367 kts 284°
2026-04-22 23:25 28.18620 46.63668 35965 ft 367 kts 284°
2026-04-22 23:25 28.20415 46.58248 35964 ft 367 kts 284°
2026-04-22 23:26 28.22208 46.52827 35964 ft 367 kts 284°
2026-04-22 23:26 28.23998 46.47402 35968 ft 367 kts 284°
2026-04-22 23:27 28.25789 46.41975 35973 ft 367 kts 284°
2026-04-22 23:27 28.27584 46.36550 35964 ft 367 kts 284°
2026-04-22 23:28 28.29372 46.31118 35970 ft 368 kts 284°
2026-04-22 23:28 28.31159 46.25675 35975 ft 368 kts 284°
2026-04-22 23:29 28.32951 46.20227 36017 ft 369 kts 284°
2026-04-22 23:29 28.34739 46.14776 35999 ft 369 kts 284°
2026-04-22 23:30 28.36557 46.09333 35999 ft 369 kts 285°
2026-04-22 23:30 28.38566 46.03951 35994 ft 371 kts 286°
2026-04-22 23:31 28.40627 45.98583 35992 ft 370 kts 286°
2026-04-22 23:31 28.42652 45.93206 36003 ft 370 kts 286°
2026-04-22 23:32 28.44647 45.87819 35993 ft 370 kts 285°
2026-04-22 23:32 28.46640 45.82427 35988 ft 370 kts 285°
2026-04-22 23:33 28.48627 45.77036 35993 ft 370 kts 285°
2026-04-22 23:33 28.50616 45.71646 35988 ft 370 kts 285°
2026-04-22 23:34 28.52590 45.66292 35983 ft 370 kts 285°
2026-04-22 23:34 28.54576 45.60896 35997 ft 370 kts 285°
2026-04-22 23:35 28.56564 45.55493 35989 ft 371 kts 285°
2026-04-22 23:35 28.58555 45.50084 35975 ft 371 kts 285°
2026-04-22 23:36 28.60543 45.44675 35969 ft 371 kts 285°
2026-04-22 23:36 28.62528 45.39263 35982 ft 371 kts 285°
2026-04-22 23:37 28.64512 45.33840 35985 ft 371 kts 285°
2026-04-22 23:37 28.66493 45.28403 35978 ft 372 kts 285°
2026-04-22 23:38 28.68475 45.22954 35972 ft 372 kts 285°
2026-04-22 23:38 28.70461 45.17505 35963 ft 372 kts 285°
2026-04-22 23:39 28.72444 45.12059 36007 ft 372 kts 285°
2026-04-22 23:39 28.74430 45.06601 35977 ft 373 kts 285°
2026-04-22 23:40 28.76411 45.01125 35966 ft 374 kts 285°
2026-04-22 23:40 28.78391 44.95629 35967 ft 375 kts 285°
2026-04-22 23:41 28.80368 44.90152 35958 ft 377 kts 285°
2026-04-22 23:41 28.82370 44.84630 35958 ft 377 kts 285°
2026-04-22 23:42 28.84367 44.79093 35962 ft 378 kts 285°
2026-04-22 23:42 28.86047 44.73475 35961 ft 369 kts 274°
2026-04-22 23:43 28.86559 44.67684 35960 ft 367 kts 271°
2026-04-22 23:43 28.87019 44.61885 35964 ft 367 kts 271°
2026-04-22 23:44 28.87485 44.56074 35972 ft 368 kts 271°
2026-04-22 23:44 28.87952 44.50253 35966 ft 369 kts 271°
2026-04-22 23:45 28.88411 44.44441 35957 ft 367 kts 271°
2026-04-22 23:45 28.88865 44.38636 35989 ft 367 kts 271°
2026-04-22 23:46 28.89324 44.32823 35976 ft 368 kts 271°
2026-04-22 23:46 28.89777 44.27008 35972 ft 368 kts 271°
2026-04-22 23:47 28.90224 44.21181 35980 ft 369 kts 271°
2026-04-22 23:47 28.90675 44.15347 35973 ft 369 kts 271°
2026-04-22 23:48 28.91128 44.09504 35969 ft 370 kts 271°
2026-04-22 23:48 28.91570 44.03658 35967 ft 370 kts 271°
2026-04-22 23:49 28.92007 43.97799 35987 ft 371 kts 271°
2026-04-22 23:49 28.92451 43.91933 35978 ft 371 kts 271°
2026-04-22 23:50 28.92892 43.86056 35928 ft 371 kts 271°
2026-04-22 23:50 28.93327 43.80191 35976 ft 371 kts 271°
2026-04-22 23:51 28.93761 43.74331 35977 ft 370 kts 271°
2026-04-22 23:51 28.94187 43.68519 35979 ft 370 kts 271°
2026-04-22 23:52 28.94617 43.62669 36005 ft 370 kts 271°
2026-04-22 23:52 28.95035 43.56815 35989 ft 370 kts 271°
2026-04-22 23:53 28.95454 43.50954 35979 ft 371 kts 271°
2026-04-22 23:53 28.95874 43.45092 35981 ft 371 kts 271°
2026-04-22 23:54 28.96289 43.39220 36003 ft 371 kts 271°
2026-04-22 23:54 28.96706 43.33342 35989 ft 372 kts 271°
2026-04-22 23:55 28.97117 43.27460 35977 ft 372 kts 271°
2026-04-22 23:55 28.97529 43.21574 35938 ft 372 kts 271°
2026-04-22 23:56 28.97939 43.15690 35955 ft 372 kts 271°
2026-04-22 23:56 28.98346 43.09845 35961 ft 372 kts 271°
2026-04-22 23:57 28.98752 43.03960 35966 ft 372 kts 271°
2026-04-22 23:57 28.99157 42.98078 35993 ft 372 kts 271°
2026-04-22 23:58 28.99555 42.92181 35985 ft 372 kts 271°
2026-04-22 23:58 28.99948 42.86282 35972 ft 373 kts 271°
2026-04-22 23:59 29.00337 42.80381 35973 ft 373 kts 271°
2026-04-22 23:59 29.00724 42.74476 35982 ft 373 kts 271°
2026-04-23 00:00 29.01246 42.66612 35983 ft 373 kts 271°
2026-04-23 00:01 29.01634 42.60705 36011 ft 373 kts 271°
2026-04-23 00:01 29.02020 42.54790 35971 ft 373 kts 271°
2026-04-23 00:02 29.02399 42.48879 35983 ft 373 kts 271°
2026-04-23 00:02 29.02777 42.42971 35988 ft 373 kts 271°
2026-04-23 00:03 29.03153 42.37064 35996 ft 373 kts 271°
2026-04-23 00:03 29.03532 42.31147 35993 ft 374 kts 271°
2026-04-23 00:04 29.03905 42.25223 35994 ft 374 kts 271°
2026-04-23 00:04 29.04265 42.19292 36013 ft 374 kts 271°
2026-04-23 00:05 29.04628 42.13351 35995 ft 375 kts 271°
2026-04-23 00:05 29.04990 42.07400 36002 ft 376 kts 271°
2026-04-23 00:06 29.05352 42.01442 36005 ft 376 kts 271°
2026-04-23 00:06 29.05710 41.95516 36014 ft 377 kts 271°
2026-04-23 00:07 29.06074 41.89539 35976 ft 377 kts 271°
2026-04-23 00:07 29.06421 41.83555 35988 ft 377 kts 271°
2026-04-23 00:08 29.06769 41.77569 35995 ft 378 kts 271°
2026-04-23 00:08 29.07119 41.71562 35993 ft 379 kts 271°
2026-04-23 00:09 29.07468 41.65551 35999 ft 379 kts 271°
2026-04-23 00:09 29.07812 41.59534 35997 ft 380 kts 271°
2026-04-23 00:10 29.08156 41.53507 36014 ft 380 kts 271°
2026-04-23 00:10 29.08497 41.47471 36013 ft 381 kts 271°
2026-04-23 00:11 29.08834 41.41427 36006 ft 381 kts 271°
2026-04-23 00:11 29.09173 41.35379 36007 ft 381 kts 271°
2026-04-23 00:12 29.09511 41.29328 36019 ft 381 kts 271°
2026-04-23 00:12 29.09852 41.23276 36016 ft 382 kts 271°
2026-04-23 00:13 29.10187 41.17223 35983 ft 382 kts 271°
2026-04-23 00:13 29.10514 41.11165 36014 ft 382 kts 271°
2026-04-23 00:14 29.10839 41.05110 36014 ft 382 kts 271°
2026-04-23 00:14 29.11162 40.99049 36016 ft 382 kts 271°
2026-04-23 00:15 29.11480 40.92990 36013 ft 382 kts 271°
2026-04-23 00:15 29.11797 40.86931 36036 ft 382 kts 271°
2026-04-23 00:16 29.12116 40.80873 36028 ft 381 kts 271°
2026-04-23 00:16 29.12426 40.74861 36028 ft 381 kts 271°
2026-04-23 00:17 29.12734 40.68811 36028 ft 381 kts 271°
2026-04-23 00:17 29.13038 40.62758 36028 ft 381 kts 271°
2026-04-23 00:18 29.13255 40.56709 36029 ft 380 kts 266°
2026-04-23 00:18 29.13054 40.50672 36001 ft 380 kts 266°
2026-04-23 00:19 29.12856 40.44634 36029 ft 380 kts 266°
2026-04-23 00:19 29.12657 40.38597 36029 ft 380 kts 266°
2026-04-23 00:20 29.12456 40.32557 36030 ft 380 kts 266°
2026-04-23 00:20 29.12252 40.26520 36033 ft 380 kts 266°
2026-04-23 00:21 29.12044 40.20480 36051 ft 380 kts 266°
2026-04-23 00:21 29.11833 40.14443 36046 ft 380 kts 266°
2026-04-23 00:22 29.11622 40.08405 36043 ft 380 kts 266°
2026-04-23 00:22 29.11400 40.02368 36068 ft 380 kts 266°
2026-04-23 00:23 29.11182 39.96372 36056 ft 380 kts 266°
2026-04-23 00:23 29.10968 39.90335 36050 ft 380 kts 266°
2026-04-23 00:24 29.10924 39.84290 36043 ft 381 kts 269°
2026-04-23 00:24 29.11000 39.78237 36056 ft 381 kts 269°
2026-04-23 00:25 29.11058 39.72187 36052 ft 380 kts 269°
2026-04-23 00:25 29.11083 39.66141 36047 ft 380 kts 268°
2026-04-23 00:26 29.11091 39.60093 36040 ft 380 kts 268°
2026-04-23 00:26 29.11097 39.54046 36058 ft 380 kts 268°
2026-04-23 00:27 29.11113 39.48003 36049 ft 380 kts 268°
2026-04-23 00:27 29.11127 39.41963 36044 ft 380 kts 268°
2026-04-23 00:28 29.11133 39.35923 36041 ft 380 kts 268°
2026-04-23 00:28 29.11132 39.29888 36035 ft 380 kts 268°
2026-04-23 00:29 29.11130 39.23852 36032 ft 379 kts 268°
2026-04-23 00:29 29.11126 39.17821 36034 ft 379 kts 268°
2026-04-23 00:30 29.11121 39.11787 36052 ft 379 kts 268°
2026-04-23 00:30 29.11119 39.05757 36032 ft 379 kts 268°
2026-04-23 00:31 29.11113 38.99723 36031 ft 380 kts 268°
2026-04-23 00:31 29.11097 38.93729 36031 ft 380 kts 268°
2026-04-23 00:32 29.11071 38.87650 36045 ft 380 kts 268°
2026-04-23 00:32 29.11047 38.81612 36037 ft 380 kts 268°
2026-04-23 00:33 29.11025 38.75609 36034 ft 380 kts 268°
2026-04-23 00:33 29.10994 38.69568 36036 ft 380 kts 268°
2026-04-23 00:34 29.10961 38.63529 36021 ft 380 kts 268°
2026-04-23 00:34 29.10921 38.57487 36024 ft 380 kts 268°
2026-04-23 00:35 29.10881 38.51445 36025 ft 380 kts 268°
2026-04-23 00:35 29.10840 38.45407 36025 ft 380 kts 268°
2026-04-23 00:36 29.10793 38.39364 36029 ft 380 kts 268°
2026-04-23 00:36 29.10749 38.33330 36027 ft 380 kts 268°
2026-04-23 00:37 29.10704 38.27289 36025 ft 380 kts 268°
2026-04-23 00:37 29.10649 38.21252 36024 ft 380 kts 268°
2026-04-23 00:38 29.10596 38.15211 36041 ft 380 kts 268°
2026-04-23 00:38 29.10537 38.09169 36032 ft 380 kts 268°
2026-04-23 00:39 29.10478 38.03174 36028 ft 380 kts 268°
2026-04-23 00:39 29.10413 37.97132 36003 ft 380 kts 268°
2026-04-23 00:40 29.10347 37.91094 36017 ft 380 kts 268°
2026-04-23 00:40 29.10281 37.85052 36018 ft 380 kts 268°
2026-04-23 00:41 29.10211 37.79006 36022 ft 380 kts 268°
2026-04-23 00:41 29.10132 37.72959 36021 ft 380 kts 268°
2026-04-23 00:42 29.10051 37.66909 36027 ft 381 kts 268°
2026-04-23 00:42 29.09973 37.60858 36024 ft 381 kts 268°
2026-04-23 00:43 29.09892 37.54800 36019 ft 381 kts 268°
2026-04-23 00:43 29.09810 37.48739 36019 ft 381 kts 268°
2026-04-23 00:44 29.09765 37.42678 36019 ft 382 kts 268°
2026-04-23 00:44 29.09732 37.36644 36016 ft 382 kts 268°
2026-04-23 00:45 29.09692 37.30567 35998 ft 382 kts 268°
2026-04-23 00:45 29.09642 37.24489 36005 ft 382 kts 268°
2026-04-23 00:46 29.09583 37.18410 36003 ft 383 kts 268°
2026-04-23 00:46 29.09528 37.12325 35996 ft 383 kts 268°
2026-04-23 00:47 29.09468 37.06237 36005 ft 383 kts 268°
2026-04-23 00:47 29.09401 37.00149 36001 ft 383 kts 268°
2026-04-23 00:48 29.09334 36.94061 35998 ft 383 kts 268°
2026-04-23 00:48 29.09275 36.87964 35991 ft 384 kts 268°
2026-04-23 00:49 29.09207 36.81864 35987 ft 384 kts 268°
2026-04-23 00:49 29.09130 36.75762 35987 ft 384 kts 268°
2026-04-23 00:50 29.09052 36.69655 35984 ft 384 kts 268°
2026-04-23 00:50 29.08985 36.64576 35982 ft 385 kts 268°
2026-04-23 00:51 29.08903 36.58464 35973 ft 385 kts 268°
2026-04-23 00:51 29.08821 36.52349 35983 ft 384 kts 268°
2026-04-23 00:52 29.08726 36.46238 35992 ft 385 kts 267°
2026-04-23 00:52 29.08569 36.40123 35987 ft 385 kts 267°
2026-04-23 00:53 29.08390 36.34011 35988 ft 385 kts 267°
2026-04-23 00:53 29.08216 36.27896 35984 ft 385 kts 267°
2026-04-23 00:54 29.08045 36.21776 35989 ft 385 kts 267°
2026-04-23 00:54 29.07870 36.15655 35985 ft 386 kts 267°
2026-04-23 00:55 29.07693 36.09524 35986 ft 386 kts 267°
2026-04-23 00:55 29.07514 36.03396 35988 ft 386 kts 267°
2026-04-23 00:56 29.07327 35.97259 35989 ft 386 kts 267°
2026-04-23 00:56 29.07146 35.91129 35983 ft 386 kts 267°
2026-04-23 00:57 29.06960 35.85045 35990 ft 385 kts 267°
2026-04-23 00:57 29.06767 35.78933 35992 ft 385 kts 267°
2026-04-23 00:58 29.06569 35.72824 36005 ft 385 kts 266°
2026-04-23 00:58 29.06373 35.66709 36008 ft 385 kts 266°
2026-04-23 00:59 29.06176 35.60600 35999 ft 385 kts 266°
2026-04-23 00:59 29.05975 35.54487 35995 ft 385 kts 266°
2026-04-23 01:00 29.05770 35.48371 35993 ft 385 kts 266°
2026-04-23 01:00 29.05563 35.42251 35989 ft 385 kts 266°
2026-04-23 01:01 29.05357 35.36132 35989 ft 385 kts 266°
2026-04-23 01:01 29.05146 35.30010 35982 ft 385 kts 266°
2026-04-23 01:02 29.04929 35.23887 35993 ft 386 kts 266°
2026-04-23 01:02 29.04704 35.17766 35967 ft 385 kts 266°
2026-04-23 01:03 29.04478 35.11649 35963 ft 385 kts 266°
2026-04-23 01:03 29.04263 35.05539 35965 ft 385 kts 266°
2026-04-23 01:04 29.04040 34.99433 35955 ft 385 kts 266°
2026-04-23 01:04 29.03688 34.90274 35950 ft 385 kts 266°
2026-04-23 01:05 29.03454 34.84170 35948 ft 384 kts 266°
2026-04-23 01:05 29.03318 34.78062 35950 ft 384 kts 268°
2026-04-23 01:06 29.03257 34.71953 35965 ft 385 kts 268°
2026-04-23 01:06 29.03643 34.65909 35960 ft 388 kts 281°
2026-04-23 01:07 29.05338 34.60020 35959 ft 390 kts 284°
2026-04-23 01:07 29.07060 34.54138 35959 ft 391 kts 284°
2026-04-23 01:08 29.08779 34.48239 35980 ft 391 kts 284°
2026-04-23 01:08 29.10501 34.42341 36017 ft 391 kts 284°
2026-04-23 01:09 29.12226 34.36439 36010 ft 391 kts 284°
2026-04-23 01:09 29.13949 34.30535 36024 ft 391 kts 284°
2026-04-23 01:10 29.15668 34.24636 36025 ft 391 kts 284°
2026-04-23 01:10 29.17385 34.18724 36033 ft 391 kts 284°
2026-04-23 01:11 29.19095 34.12819 36029 ft 392 kts 284°
2026-04-23 01:11 29.20812 34.06894 36027 ft 392 kts 284°
2026-04-23 01:12 29.22522 34.00973 36026 ft 392 kts 284°
2026-04-23 01:12 29.24227 33.95037 36024 ft 392 kts 284°
2026-04-23 01:13 29.25936 33.89110 36019 ft 392 kts 284°
2026-04-23 01:13 29.27643 33.83165 36018 ft 392 kts 284°
2026-04-23 01:14 29.29348 33.77226 36013 ft 393 kts 284°
2026-04-23 01:14 29.31055 33.71284 36014 ft 393 kts 284°
2026-04-23 01:15 29.32751 33.65377 36023 ft 393 kts 284°
2026-04-23 01:15 29.34450 33.59429 36020 ft 393 kts 284°
2026-04-23 01:16 29.36147 33.53481 36016 ft 393 kts 284°
2026-04-23 01:16 29.37843 33.47525 36010 ft 393 kts 284°
2026-04-23 01:17 29.39539 33.41574 36015 ft 393 kts 284°
2026-04-23 01:17 29.41224 33.35610 36004 ft 393 kts 284°
2026-04-23 01:18 29.42903 33.29647 36006 ft 393 kts 284°
2026-04-23 01:18 29.44582 33.23685 35999 ft 393 kts 284°
2026-04-23 01:19 29.46257 33.17719 36000 ft 393 kts 284°
2026-04-23 01:19 29.47931 33.11753 36001 ft 393 kts 284°
2026-04-23 01:20 29.49609 33.05786 35999 ft 393 kts 284°
2026-04-23 01:20 29.51284 32.99820 35992 ft 393 kts 284°
2026-04-23 01:21 29.52955 32.93845 35799 ft 394 kts 284°
2026-04-23 01:21 29.53796 32.90819 34755 ft 402 kts 284°
2026-04-23 01:21 29.54654 32.87724 33665 ft 411 kts 284°
2026-04-23 01:22 29.55529 32.84573 32576 ft 417 kts 284°
2026-04-23 01:22 29.56417 32.81394 31618 ft 419 kts 285°
2026-04-23 01:22 29.57310 32.78196 30696 ft 421 kts 285°
2026-04-23 01:22 29.58208 32.74982 29639 ft 425 kts 285°
2026-04-23 01:23 29.59109 32.71754 28940 ft 420 kts 285°
2026-04-23 01:23 29.59990 32.68593 28334 ft 412 kts 285°
2026-04-23 01:23 29.60803 32.65460 27650 ft 407 kts 283°
2026-04-23 01:23 29.61525 32.62382 27021 ft 402 kts 282°
2026-04-23 01:24 29.62207 32.59287 26388 ft 398 kts 282°
2026-04-23 01:24 29.62863 32.56217 25769 ft 394 kts 282°
2026-04-23 01:24 29.63514 32.53178 25167 ft 391 kts 282°
2026-04-23 01:24 29.64174 32.50155 24562 ft 387 kts 283°
2026-04-23 01:25 29.64839 32.47170 23983 ft 384 kts 283°
2026-04-23 01:25 29.65509 32.44205 23385 ft 382 kts 283°
2026-04-23 01:25 29.66177 32.41270 22800 ft 377 kts 283°
2026-04-23 01:25 29.66837 32.38371 22298 ft 372 kts 283°
2026-04-23 01:26 29.67484 32.35517 21808 ft 367 kts 283°
2026-04-23 01:26 29.68123 32.32696 21349 ft 362 kts 284°
2026-04-23 01:26 29.68751 32.29909 20891 ft 358 kts 284°
2026-04-23 01:26 29.69370 32.27159 20450 ft 354 kts 284°
2026-04-23 01:27 29.69983 32.24431 20012 ft 351 kts 284°
2026-04-23 01:27 29.70589 32.21719 19583 ft 349 kts 283°
2026-04-23 01:27 29.71188 32.19017 19144 ft 347 kts 283°
2026-04-23 01:27 29.71783 32.16335 18718 ft 346 kts 284°
2026-04-23 01:28 29.72377 32.13659 18270 ft 344 kts 284°
2026-04-23 01:28 29.72970 32.10995 17782 ft 342 kts 284°
2026-04-23 01:28 29.73561 32.08347 17332 ft 341 kts 284°
2026-04-23 01:28 29.74149 32.05715 16887 ft 339 kts 284°
2026-04-23 01:29 29.74734 32.03096 16432 ft 337 kts 284°
2026-04-23 01:29 29.75314 32.00491 15979 ft 335 kts 284°
2026-04-23 01:29 29.75892 31.97893 15530 ft 334 kts 284°
2026-04-23 01:29 29.76466 31.95310 15076 ft 333 kts 284°
2026-04-23 01:30 29.77038 31.92736 14623 ft 332 kts 284°
2026-04-23 01:30 29.77606 31.90164 14166 ft 331 kts 284°
2026-04-23 01:30 29.78308 31.87642 13694 ft 331 kts 292°
2026-04-23 01:30 29.79369 31.85295 13206 ft 331 kts 302°
2026-04-23 01:31 29.80708 31.83155 12745 ft 329 kts 306°
2026-04-23 01:31 29.82069 31.81050 12269 ft 327 kts 306°
2026-04-23 01:31 29.83420 31.78949 11787 ft 326 kts 306°
2026-04-23 01:31 29.84763 31.76854 11317 ft 324 kts 306°
2026-04-23 01:32 29.86080 31.74799 10832 ft 323 kts 306°
2026-04-23 01:32 29.87403 31.72734 10560 ft 315 kts 306°
2026-04-23 01:32 29.88674 31.70747 10434 ft 302 kts 306°
2026-04-23 01:32 29.89896 31.68833 10320 ft 291 kts 306°
2026-04-23 01:33 29.91079 31.66976 10119 ft 284 kts 306°
2026-04-23 01:33 29.92250 31.65148 10063 ft 283 kts 306°
2026-04-23 01:33 29.93426 31.63330 9981 ft 283 kts 306°
2026-04-23 01:33 29.94611 31.61504 9602 ft 286 kts 307°
2026-04-23 01:34 29.95800 31.59674 9198 ft 284 kts 307°
2026-04-23 01:34 29.96985 31.57848 8746 ft 284 kts 307°
2026-04-23 01:34 29.98160 31.56034 8373 ft 282 kts 307°
2026-04-23 01:34 29.99328 31.54226 7965 ft 280 kts 307°
2026-04-23 01:35 30.00490 31.52425 7592 ft 278 kts 307°
2026-04-23 01:35 30.01643 31.50643 7135 ft 278 kts 306°
2026-04-23 01:35 30.02801 31.48849 6703 ft 278 kts 307°
2026-04-23 01:35 30.03948 31.47069 6301 ft 276 kts 307°
2026-04-23 01:36 30.05076 31.45314 5926 ft 273 kts 307°
2026-04-23 01:36 30.06203 31.43561 5512 ft 272 kts 307°
2026-04-23 01:36 30.07316 31.41821 5142 ft 268 kts 306°
2026-04-23 01:36 30.08111 31.39883 4747 ft 268 kts 286°
2026-04-23 01:37 30.08242 31.37744 4368 ft 268 kts 265°
2026-04-23 01:37 30.07690 31.35696 4151 ft 271 kts 245°
2026-04-23 01:37 30.06773 31.33786 3915 ft 271 kts 243°
2026-04-23 01:37 30.05865 31.31921 3686 ft 262 kts 243°
2026-04-23 01:38 30.04985 31.30118 3452 ft 253 kts 244°
2026-04-23 01:38 30.04132 31.28371 3236 ft 246 kts 244°
2026-04-23 01:38 30.03303 31.26671 3020 ft 240 kts 244°
2026-04-23 01:38 30.02497 31.25012 2821 ft 234 kts 243°
2026-04-23 01:39 30.01719 31.23416 2724 ft 224 kts 244°
2026-04-23 01:39 30.00881 31.21927 2709 ft 222 kts 226°
2026-04-23 01:39 29.99552 31.21161 2704 ft 213 kts 186°
2026-04-23 01:39 29.98137 31.21455 2705 ft 207 kts 148°
2026-04-23 01:40 29.97416 31.22138 2714 ft 202 kts 124°
2026-04-23 01:40 29.96896 31.23582 2708 ft 194 kts 90°
2026-04-23 01:40 29.97129 31.25056 2723 ft 181 kts 58°
2026-04-23 01:40 29.97840 31.26138 2721 ft 161 kts 45°
2026-04-23 01:41 29.98546 31.27071 2695 ft 148 kts 45°
2026-04-23 01:41 29.99207 31.27946 2707 ft 143 kts 45°
2026-04-23 01:41 30.00061 31.29076 2707 ft 140 kts 45°
2026-04-23 01:41 30.00492 31.29648 2711 ft 140 kts 45°
2026-04-23 01:42 30.01131 31.30495 2711 ft 140 kts 45°
2026-04-23 01:42 30.01768 31.31341 2686 ft 140 kts 46°
2026-04-23 01:42 30.02406 31.32187 2576 ft 139 kts 45°
2026-04-23 01:42 30.03040 31.33030 2428 ft 139 kts 46°
2026-04-23 01:43 30.03648 31.33838 2272 ft 133 kts 46°
2026-04-23 01:43 30.04248 31.34634 2096 ft 131 kts 47°
2026-04-23 01:43 30.04841 31.35423 1923 ft 130 kts 47°
2026-04-23 01:43 30.05430 31.36206 1747 ft 129 kts 48°
2026-04-23 01:44 30.06012 31.36988 1595 ft 129 kts 49°
2026-04-23 01:44 30.06589 31.37778 1411 ft 129 kts 49°
2026-04-23 01:44 30.07172 31.38560 1245 ft 129 kts 47°
2026-04-23 01:44 30.07773 31.39328 1100 ft 129 kts 47°
2026-04-23 01:45 30.08364 31.40108 936 ft 129 kts 49°
2026-04-23 01:45 30.08953 31.40892 765 ft 129 kts 49°
2026-04-23 01:45 30.09544 31.41675 583 ft 129 kts 50°
2026-04-23 01:45 30.10122 31.42450 479 ft 120 kts 49°
2026-04-23 01:46 30.10615 31.43104 453 ft 95 kts 50°
2026-04-23 01:46 30.11060 31.43733 516 ft 125 kts 51°
2026-04-23 01:46 30.11640 31.44479 1303 ft 124 kts 45°
2026-04-23 01:46 30.12273 31.45167 2052 ft 126 kts 41°
2026-04-23 01:47 30.12912 31.45980 2355 ft 149 kts 54°
2026-04-23 01:47 30.13305 31.47183 2683 ft 172 kts 77°
2026-04-23 01:47 30.13448 31.48692 2724 ft 203 kts 83°
2026-04-23 01:47 30.13532 31.50341 2711 ft 211 kts 84°
2026-04-23 01:48 30.13608 31.52040 2704 ft 212 kts 84°
2026-04-23 01:48 30.13691 31.53741 2703 ft 212 kts 84°
2026-04-23 01:48 30.13764 31.55449 2707 ft 218 kts 89°
2026-04-23 01:48 30.13335 31.57197 2759 ft 246 kts 122°
2026-04-23 01:49 30.11966 31.58496 3336 ft 271 kts 159°
2026-04-23 01:49 30.10068 31.58672 4116 ft 282 kts 193°
2026-04-23 01:49 30.08344 31.57687 4407 ft 278 kts 225°
2026-04-23 01:49 30.07379 31.55811 4491 ft 272 kts 260°
2026-04-23 01:50 30.07365 31.53663 4510 ft 268 kts 282°
2026-04-23 01:50 30.07593 31.51523 4509 ft 269 kts 273°
2026-04-23 01:50 30.07321 31.49386 4505 ft 272 kts 254°
2026-04-23 01:50 30.06600 31.47412 4504 ft 257 kts 253°
2026-04-23 01:51 30.06514 31.45496 4504 ft 230 kts 290°
2026-04-23 01:51 30.07058 31.43838 4508 ft 215 kts 287°
2026-04-23 01:51 30.07048 31.42115 4505 ft 218 kts 265°
2026-04-23 01:51 30.07149 31.40418 4506 ft 210 kts 295°
2026-04-23 01:52 30.07757 31.38884 4511 ft 212 kts 291°
2026-04-23 01:52 30.07922 31.37192 4511 ft 217 kts 264°
2026-04-23 01:52 30.07563 31.35509 4502 ft 220 kts 256°
2026-04-23 01:52 30.06975 31.33876 4453 ft 222 kts 246°
2026-04-23 01:53 30.06225 31.32304 4256 ft 223 kts 243°
2026-04-23 01:53 30.05438 31.30767 3990 ft 222 kts 243°
2026-04-23 01:53 30.04642 31.29214 3615 ft 227 kts 243°
2026-04-23 01:53 30.03838 31.27634 3339 ft 228 kts 243°
2026-04-23 01:54 30.03044 31.26053 3050 ft 228 kts 244°
2026-04-23 01:54 30.02060 31.24609 2766 ft 231 kts 219°
2026-04-23 01:54 30.00651 31.23901 2699 ft 214 kts 189°
2026-04-23 01:54 29.99247 31.24001 2691 ft 194 kts 161°
2026-04-23 01:55 29.98126 31.24702 2695 ft 174 kts 135°
2026-04-23 01:55 29.97408 31.25732 2696 ft 159 kts 112°
2026-04-23 01:55 29.97073 31.26904 2711 ft 151 kts 92°
2026-04-23 01:55 29.97096 31.28082 2703 ft 145 kts 73°
2026-04-23 01:56 29.97438 31.29150 2720 ft 141 kts 55°
2026-04-23 01:56 29.98036 31.30020 2710 ft 137 kts 38°
2026-04-23 01:56 29.98819 31.30629 2713 ft 135 kts 22°
2026-04-23 01:56 29.99711 31.30969 2670 ft 135 kts 12°
2026-04-23 01:57 30.00621 31.31219 2650 ft 133 kts 15°
2026-04-23 01:57 30.01451 31.31644 2732 ft 131 kts 30°
2026-04-23 01:57 30.02167 31.32296 2563 ft 131 kts 40°
2026-04-23 01:57 30.02827 31.33018 2315 ft 130 kts 39°
2026-04-23 01:58 30.03486 31.33701 2068 ft 129 kts 42°
2026-04-23 01:58 30.04119 31.34423 1869 ft 127 kts 47°
2026-04-23 01:58 30.04693 31.35214 1733 ft 127 kts 50°
2026-04-23 01:58 30.05255 31.35981 1616 ft 127 kts 48°
2026-04-23 01:59 30.05827 31.36756 1512 ft 127 kts 49°
2026-04-23 01:59 30.06414 31.37517 1404 ft 128 kts 47°
2026-04-23 01:59 30.06996 31.38290 1276 ft 128 kts 49°
2026-04-23 01:59 30.07578 31.39072 1149 ft 128 kts 48°
2026-04-23 02:00 30.08166 31.39847 1006 ft 129 kts 49°
2026-04-23 02:00 30.08756 31.40623 839 ft 129 kts 48°
2026-04-23 02:00 30.09347 31.41399 651 ft 129 kts 50°
2026-04-23 02:00 30.09926 31.42186 476 ft 128 kts 49°
2026-04-23 02:01 30.10460 31.42903 449 ft 100 kts 49°
2026-04-23 02:01 30.10807 31.43360 449 ft 52 kts 49°
2026-04-23 02:01 30.10968 31.43577 449 ft 30 kts 49°
2026-04-23 02:01 30.11105 31.43759 447 ft 30 kts 49°
2026-04-23 02:02 30.11213 31.43888 449 ft 21 kts 41°
2026-04-23 02:02 30.11335 31.43984 449 ft 22 kts 30°
2026-04-23 02:02 30.11481 31.44062 449 ft 24 kts 24°
2026-04-23 02:02 30.11590 31.44102 449 ft 13 kts 356°
2026-04-23 02:03 30.11655 31.44038 449 ft 12 kts 267°
2026-04-23 02:03 30.11607 31.43968 450 ft 11 kts 228°
2026-04-23 02:03 30.11560 31.43907 449 ft 10 kts 228°
2026-04-23 02:03 30.11515 31.43848 450 ft 9 kts 229°
2026-04-23 02:04 30.11473 31.43792 449 ft 9 kts 229°
2026-04-23 02:04 30.11432 31.43740 449 ft 8 kts 229°
2026-04-23 02:04 30.11396 31.43690 449 ft 8 kts 229°
2026-04-23 02:04 30.11361 31.43644 449 ft 7 kts 229°
2026-04-23 02:05 30.11329 31.43601 449 ft 7 kts 229°
2026-04-23 02:05 30.11300 31.43562 449 ft 6 kts 229°
2026-04-23 02:05 30.11269 31.43521 450 ft 9 kts 229°
2026-04-23 02:05 30.11236 31.43440 450 ft 14 kts 282°
2026-04-23 02:06 30.11318 31.43346 450 ft 20 kts 318°
2026-04-23 02:06 30.11438 31.43226 448 ft 27 kts 319°
2026-04-23 02:06 30.11609 31.43057 427 ft 38 kts 319°
2026-04-23 02:06 30.11834 31.42836 407 ft 47 kts 319°
2026-04-23 02:07 30.12041 31.42626 388 ft 29 kts 320°
2026-04-23 02:07 30.12175 31.42488 389 ft 19 kts 316°
2026-04-23 02:07 30.12159 31.42346 389 ft 23 kts 232°
2026-04-23 02:07 30.12040 31.42188 389 ft 29 kts 229°
2026-04-23 02:08 30.11892 31.41995 389 ft 35 kts 228°
2026-04-23 02:08 30.11717 31.41776 389 ft 40 kts 227°
2026-04-23 02:08 30.11525 31.41520 389 ft 44 kts 231°
2026-04-23 02:08 30.11399 31.41342 389 ft 17 kts 228°
2026-04-23 02:09 30.11303 31.41219 389 ft 24 kts 227°
2026-04-23 02:09 30.11183 31.41050 389 ft 30 kts 231°
2026-04-23 02:09 30.11060 31.40887 389 ft 16 kts 236°
2026-04-23 02:09 30.11075 31.40771 384 ft 15 kts 267°
2026-04-23 02:10 30.11076 31.40670 378 ft 11 kts 312°
2026-04-23 02:10 30.11150 31.40596 370 ft 17 kts 320°
2026-04-23 02:10 30.11257 31.40491 362 ft 22 kts 319°
2026-04-23 02:10 30.11303 31.40435 361 ft 8 kts 285°
2026-04-23 02:11 30.11280 31.40397 364 ft 5 kts 201°
2026-04-23 02:11 30.11248 31.40404 364 ft 5 kts 170°
2026-04-23 02:11 30.11219 31.40394 362 ft 4 kts 212°
2026-04-23 02:11 30.11202 31.40376 365 ft 3 kts 227°
2026-04-23 02:12 30.11190 31.40361 367 ft 2 kts 227°
2026-04-23 02:12 30.11182 31.40350 362 ft 1 kts 227°
2026-04-23 02:12 30.11177 31.40344 362 ft 1 kts 227°
2026-04-23 02:12 30.11176 31.40343 362 ft 0 kts 227°
2026-04-23 02:13 30.11175 31.40342 362 ft 0 kts 227°
2026-04-23 02:13 30.01821 31.31411 2657 ft 139 kts 46°
2026-04-23 02:13 30.07646 31.39165 1114 ft 129 kts 47°
2026-04-23 02:14 30.08241 31.39942 961 ft 129 kts 49°
2026-04-23 02:14 30.08828 31.40728 790 ft 129 kts 49°
2026-04-23 02:14 30.09420 31.41509 620 ft 130 kts 50°
2026-04-23 02:14 30.10004 31.42295 481 ft 126 kts 49°
2026-04-23 02:15 30.10949 31.43575 460 ft 114 kts 51°
2026-04-23 02:15 30.11513 31.44327 1146 ft 124 kts 47°
2026-04-23 02:15 30.12136 31.45027 1936 ft 126 kts 41°
2026-04-23 02:16 30.12773 31.45766 2300 ft 143 kts 49°
2026-04-23 02:16 30.10216 31.42573 463 ft 116 kts 49°
2026-04-23 02:16 30.10687 31.43204 455 ft 91 kts 50°
2026-04-23 02:16 30.11156 31.43867 619 ft 126 kts 50°
2026-04-23 02:17 30.11746 31.44603 1455 ft 124 kts 44°
2026-04-23 02:17 30.07957 31.39569 1079 ft 128 kts 48°
2026-04-23 02:17 30.08552 31.40359 912 ft 129 kts 49°